Stations météo

réclame
Mon MeteoGroup
Gilze-Rijen, Pays-Bas (6350): Température de l'air & dewpoint: 19.04.2018 10:00:00 - 25.04.2018 10:00:00 (CEST)Gilze-Rijen, Pays-Bas (6350): Température de l'air 5cm: 19.04.2018 10:00:00 - 25.04.2018 10:00:00 (CEST)Gilze-Rijen, Pays-Bas (6350): Vitesse du vent & gusts: 19.04.2018 10:00:00 - 25.04.2018 10:00:00 (CEST)Gilze-Rijen, Pays-Bas (6350): Direction du vent: 19.04.2018 10:00:00 - 25.04.2018 10:00:00 (CEST)Gilze-Rijen, Pays-Bas (6350): reduced air pressure: 19.04.2018 10:00:00 - 25.04.2018 10:00:00 (CEST)Gilze-Rijen, Pays-Bas (6350): visibility: 19.04.2018 10:00:00 - 25.04.2018 10:00:00 (CEST)Gilze-Rijen, Pays-Bas (6350): Quantités de précipitations: 19.04.2018 10:00:00 - 25.04.2018 10:00:00 (CEST)
Date & Time tt [°C] td [°C] tt 5cm [°C] ff [km/h] ff [knt] fx [km/h] fx [knt] dd ppp [hPa] vv [km] rr [mm]
25.04.2018 10:00:00 11,7 7,9 11,9 21 11 36 19 W 1010,9 10 0,0
25.04.2018 09:00:00 11,2 7,8 11,4 21 11 32 18 W 1010,2 10 0,0
25.04.2018 08:00:00 11,1 9,1 10,9 26 14 40 21 W 1009,3 10 0,6
25.04.2018 07:00:00 11,6 10,3 11,3 16 9 40 21 WSW 1008,4 10 0,0
25.04.2018 06:00:00 11,5 10,7 11,3 21 11 40 21 WSW 1008,0 6 0,5
25.04.2018 05:00:00 13,2 10,0 12,8 24 13 43 23 WSW 1007,5 10 0,0
25.04.2018 04:00:00 13,7 10,2 13,3 24 13 43 23 WSW 1007,8 10 0,0
25.04.2018 03:00:00 13,6 10,7 13,1 24 13 40 21 SW 1008,2 10 0,0
25.04.2018 02:00:00 14,1 10,2 13,7 18 10 29 16 SW 1008,7 10 0,0
25.04.2018 01:00:00 14,1 10,3 13,6 11 6 25 14 SW 1009,4 10 0,0
25.04.2018 00:00:00 13,8 10,0 12,9 8 4 18 10 SW 1010,3 10 0,0
24.04.2018 23:00:00 13,8 9,9 13,1 5 3 11 6 SSW 1011,1 10 0,0
24.04.2018 22:00:00 13,8 9,5 13,0 5 3 18 10 SW 1011,8 10 0,0
24.04.2018 21:00:00 14,1 9,1 13,4 11 6 18 10 SSW 1012,2 10 0,0
24.04.2018 20:00:00 14,8 9,4 14,3 13 7 25 14 SSW 1012,7 10 0,0
24.04.2018 19:00:00 15,2 9,2 15,1 15 8 25 14 SSW 1013,5 10 0,0
24.04.2018 18:00:00 15,2 8,9 15,6 18 10 36 19 SSW 1014,1 10 0,0
24.04.2018 17:00:00 15,3 9,5 16,0 18 10 29 16 SSW 1014,7 10 0,0
24.04.2018 16:00:00 15,2 9,4 15,8 15 8 25 14 SSW 1015,4 10 0,0
24.04.2018 15:00:00 14,1 9,7 15,0 15 8 25 14 SSW 1016,4 10 0,0
24.04.2018 14:00:00 13,3 9,7 13,3 15 8 29 16 SW 1016,7 10 0,0
24.04.2018 13:00:00 12,3 9,1 12,8 18 10 29 16 SSW 1017,1 10 0,0
24.04.2018 12:00:00 11,4 8,6 11,7 16 9 29 16 SSW 1017,3 10 0,0
24.04.2018 11:00:00 11,4 8,6 11,4 15 8 29 16 SW 1016,8 10 0,0
24.04.2018 10:00:00 11,4 8,0 11,9 15 8 25 14 SW 1016,6 10 0,0
24.04.2018 09:00:00 10,9 7,3 11,0 15 8 25 14 SW 1016,4 10 0,0
24.04.2018 08:00:00 10,4 6,6 10,3 13 7 25 14 SW 1016,0 10 0,0
24.04.2018 07:00:00 10,0 6,1 9,7 11 6 25 14 SW 1015,9 10 0,0
24.04.2018 06:00:00 9,7 6,1 9,2 11 6 25 14 WSW 1015,7 10 0,0
24.04.2018 05:00:00 9,3 5,9 8,9 16 9 25 14 SW 1015,6 10 0,0
24.04.2018 04:00:00 8,9 5,6 8,0 15 8 25 14 SW 1015,8 10 0,0
24.04.2018 03:00:00 8,9 5,6 7,9 13 7 22 12 SSW 1015,9 10 0,0
24.04.2018 02:00:00 9,0 5,6 8,0 13 7 22 12 SSW 1016,6 10 0,0
24.04.2018 01:00:00 9,7 5,8 8,6 15 8 25 14 SW 1016,6 10 0,0
24.04.2018 00:00:00 9,9 6,2 8,4 9 5 25 14 WSW 1017,4 10 0,0
23.04.2018 23:00:00 11,5 6,2 9,6 11 6 25 14 SW 1017,0 10 0,0
23.04.2018 22:00:00 11,4 7,2 8,7 8 4 11 6 SW 1016,8 10 0,0
23.04.2018 21:00:00 12,5 7,3 11,0 8 4 14 8 W 1016,7 10 0,0
23.04.2018 20:00:00 13,3 8,4 12,7 7 4 22 12 W 1016,4 26 0,0
23.04.2018 19:00:00 14,2 7,8 14,1 16 9 29 16 WNW 1016,5 10 0,0
23.04.2018 18:00:00 15,6 7,1 16,0 14 8 29 16 W 1016,7 36 0,0
23.04.2018 17:00:00 16,5 6,8 17,1 18 10 36 19 W 1016,7 27 0,0
23.04.2018 16:00:00 16,2 7,3 17,5 22 12 40 21 W 1016,9 27 0,0
23.04.2018 15:00:00 15,4 6,4 16,7 18 10 36 19 WSW 1016,9 31 0,0
23.04.2018 14:00:00 15,8 7,5 16,9 18 10 36 19 WSW 1016,6 10 0,0
23.04.2018 13:00:00 15,0 8,3 14,7 18 10 32 18 W 1016,6 24 0,0
23.04.2018 12:00:00 15,4 8,9 16,2 18 10 32 18 WSW 1016,3 22 0,0
23.04.2018 11:00:00 13,4 8,0 14,2 14 8 29 16 W 1016,0 20 0,0
23.04.2018 10:00:00 13,3 9,5 14,7 13 7 25 14 WSW 1015,3 10 0,0
23.04.2018 09:00:00 12,6 9,3 13,5 11 6 22 12 WSW 1014,8 13 0,0
23.04.2018 08:00:00 11,4 9,2 11,2 11 6 18 10 WSW 1014,4 10 0,0
23.04.2018 07:00:00 10,3 8,2 9,1 11 6 14 8 SW 1013,7 11 0,0
23.04.2018 06:00:00 10,6 7,6 9,1 8 4 14 8 SW 1013,3 10 0,0
23.04.2018 05:00:00 11,2 7,6 9,1 7 4 18 10 SW 1012,9 24 0,0
23.04.2018 04:00:00 13,0 7,7 11,8 11 6 22 12 WSW 1012,4 29 0,0
23.04.2018 03:00:00 14,1 9,3 12,9 9 5 22 12 WSW 1012,1 10 0,0
23.04.2018 02:00:00 15,2 9,3 13,7 13 7 29 16 WSW 1011,6 10 0,0
23.04.2018 01:00:00 16,2 11,0 14,5 9 5 22 12 SW 1011,8 10 0,0
23.04.2018 00:00:00 15,9 11,9 12,9 5 3 11 6 SSW 1010,9 10 0,0
22.04.2018 23:00:00 14,0 13,9 11,6 4 2 11 6 - 1010,9 10 0,0
22.04.2018 22:00:00 14,4 14,0 10,3 2 1 7 4 SW 1010,8 2,9 0,0
22.04.2018 21:00:00 16,2 14,3 13,5 4 2 11 6 S 1010,1 10 0,0
22.04.2018 20:00:00 19,2 15,6 18,8 7 4 18 10 WNW 1009,4 11 0,0
22.04.2018 19:00:00 20,2 16,2 20,6 11 6 25 14 W 1009,3 10 0,2
22.04.2018 18:00:00 17,1 15,1 16,9 29 16 47 25 W 1009,3 4,4 4,7
22.04.2018 17:00:00 25,7 12,7 25,7 18 10 32 18 SW 1008,1 20 0,3
22.04.2018 16:00:00 26,9 12,1 28,1 24 13 36 19 SSW 1008,7 10 0,0
22.04.2018 15:00:00 26,6 11,8 28,5 16 9 36 19 SSW 1009,3 10 0,0
22.04.2018 14:00:00 26,2 12,3 28,3 15 8 29 16 S 1009,9 10 0,0
22.04.2018 13:00:00 25,1 11,8 27,5 5 3 18 10 - 1010,4 10 0,0
22.04.2018 12:00:00 21,3 13,4 23,1 11 6 29 16 S 1011,7 10 0,0
22.04.2018 11:00:00 19,6 12,2 19,6 13 7 25 14 S 1012,8 9 0,0
22.04.2018 10:00:00 17,6 11,3 18,4 9 5 14 8 SSE 1012,2 10 0,0
22.04.2018 09:00:00 15,2 10,3 16,0 5 3 11 6 SE 1012,8 10 0,0
22.04.2018 08:00:00 12,3 9,2 10,7 2 1 4 2 - 1013,3 10 0,0
22.04.2018 07:00:00 11,2 8,2 6,5 4 2 7 4 NNE 1013,3 13 0,0
22.04.2018 06:00:00 11,5 8,1 6,4 8 4 11 6 E 1013,7 10 0,0
22.04.2018 05:00:00 12,0 8,1 8,0 11 6 14 8 E 1014,3 15 0,0
22.04.2018 04:00:00 11,8 7,6 6,9 7 4 11 6 ENE 1015,5 16 0,0
22.04.2018 03:00:00 13,4 7,8 6,1 5 3 11 6 E 1015,9 10 0,0
22.04.2018 02:00:00 13,7 7,8 6,4 8 4 11 6 E 1016,5 10 0,0
22.04.2018 01:00:00 14,1 8,0 6,1 5 3 11 6 E 1017,2 10 0,0
22.04.2018 00:00:00 14,8 8,3 7,2 8 4 11 6 E 1017,8 10 0,0
21.04.2018 23:00:00 14,7 9,0 7,3 4 2 7 4 - 1018,2 10 0,0
21.04.2018 22:00:00 15,6 9,1 9,0 4 2 11 6 ENE 1018,5 10 0,0
21.04.2018 21:00:00 16,0 9,4 13,0 9 5 14 8 NE 1018,4 10 0,0
21.04.2018 20:00:00 19,5 10,2 18,2 11 6 18 10 NE 1018,4 28 0,0
21.04.2018 19:00:00 22,1 9,6 21,8 11 6 18 10 NE 1018,7 25 0,0
21.04.2018 18:00:00 22,6 9,2 22,6 11 6 22 12 NE 1019,4 41 0,0
21.04.2018 17:00:00 23,0 8,1 24,2 7 4 18 10 ENE 1019,9 32 0,0
21.04.2018 16:00:00 22,4 10,3 23,8 14 8 22 12 NNE 1020,6 22 0,0
21.04.2018 15:00:00 22,0 11,4 23,4 15 8 25 14 N 1021,2 10 0,0
21.04.2018 14:00:00 21,5 12,6 23,1 9 5 22 12 NNE 1021,7 10 0,0
21.04.2018 13:00:00 20,4 11,5 22,5 9 5 18 10 NE 1022,2 10 0,0
21.04.2018 12:00:00 18,9 11,1 21,1 13 7 22 12 ENE 1022,9 10 0,0
21.04.2018 11:00:00 17,3 11,7 19,0 9 5 22 12 ENE 1023,0 7 0,0
21.04.2018 10:00:00 15,1 11,7 16,4 9 5 14 8 NE 1023,1 6 0,0
21.04.2018 09:00:00 11,6 11,6 11,5 9 5 18 10 NNE 1022,9 0,9 0,0
21.04.2018 08:00:00 10,4 9,6 10,3 9 5 14 8 NNE 1022,9 1,6 0,0
21.04.2018 07:00:00 9,1 8,2 7,1 7 4 11 6 N 1022,6 1,6 0,0
21.04.2018 06:00:00 9,5 8,1 8,2 11 6 14 8 N 1022,1 1,7 0,0
21.04.2018 05:00:00 9,8 8,4 5,1 7 4 11 6 N 1022,2 1,8 0,0
21.04.2018 04:00:00 8,8 8,2 4,3 2 1 4 2 - 1022,1 1,4 0,0
21.04.2018 03:00:00 8,8 8,0 5,9 4 2 7 4 WNW 1022,4 2,9 0,0
21.04.2018 02:00:00 10,3 9,4 7,8 5 3 11 6 WNW 1022,5 1,9 0,0
21.04.2018 01:00:00 10,7 9,3 8,2 8 4 11 6 WNW 1022,5 3,4 0,0
21.04.2018 00:00:00 11,4 9,6 9,7 8 4 14 8 WNW 1022,3 5 0,0
20.04.2018 23:00:00 13,2 11,1 11,7 11 6 14 8 WNW 1022,3 4,9 0,0
20.04.2018 22:00:00 15,3 11,8 12,6 9 5 11 6 WNW 1022,1 7 0,0
20.04.2018 21:00:00 16,7 12,0 14,5 9 5 18 10 WNW 1022,0 10 0,0
20.04.2018 20:00:00 21,2 13,3 20,2 11 6 25 14 WNW 1021,6 15 0,0
20.04.2018 19:00:00 23,6 6,4 23,2 16 9 25 14 WNW 1021,5 10 0,0
20.04.2018 18:00:00 25,1 6,6 25,6 18 10 29 16 W 1021,7 33 0,0
20.04.2018 17:00:00 25,7 7,5 26,4 22 12 29 16 WNW 1021,9 29 0,0
20.04.2018 16:00:00 26,2 12,7 27,3 22 12 32 18 WNW 1021,9 25 0,0
20.04.2018 15:00:00 25,9 12,4 26,8 18 10 25 14 WNW 1022,2 25 0,0
20.04.2018 14:00:00 27,2 13,0 28,6 13 7 25 14 W 1022,3 10 0,0
20.04.2018 13:00:00 26,3 14,7 28,0 11 6 18 10 SW 1022,7 10 0,0
20.04.2018 12:00:00 25,1 14,4 27,0 9 5 14 8 SW 1022,9 10 0,0
20.04.2018 11:00:00 23,3 14,0 25,1 5 3 14 8 SSW 1022,8 10 0,0
20.04.2018 10:00:00 21,3 12,5 22,5 8 4 14 8 WSW 1022,6 10 0,0
20.04.2018 09:00:00 19,3 11,7 19,4 8 4 11 6 SSW 1022,6 10 0,0
20.04.2018 08:00:00 15,1 12,2 13,4 7 4 7 4 S 1022,7 9 0,0
20.04.2018 07:00:00 11,8 9,4 8,5 7 4 7 4 S 1022,6 7 0,0
20.04.2018 06:00:00 12,0 9,6 7,4 4 2 7 4 S 1022,6 8 0,0
20.04.2018 05:00:00 12,0 10,0 7,9 7 4 7 4 S 1022,8 6 0,0
20.04.2018 04:00:00 11,3 8,9 8,1 5 3 7 4 S 1023,2 8 0,0
20.04.2018 03:00:00 12,3 9,6 7,5 4 2 7 4 S 1023,3 11 0,0
20.04.2018 02:00:00 13,5 10,0 8,1 4 2 7 4 S 1023,6 10 0,0
20.04.2018 01:00:00 13,5 9,8 9,6 4 2 4 2 SW 1023,6 15 0,0
20.04.2018 00:00:00 15,0 9,5 10,2 4 2 11 6 WSW 1023,5 30 0,0
19.04.2018 23:00:00 17,5 9,7 12,6 0 0 25 14 N 1023,6 43 0,0
19.04.2018 22:00:00 22,2 8,3 15,0 8 4 25 14 ESE 1023,5 10 0,0
19.04.2018 21:00:00 24,0 8,2 20,1 7 4 18 10 ESE 1023,2 33 0,0
19.04.2018 20:00:00 25,3 9,1 22,3 11 6 18 10 SE 1023,1 40 0,0
19.04.2018 19:00:00 27,6 7,1 26,2 13 7 29 16 SE 1023,2 10 0,0
19.04.2018 18:00:00 28,5 8,3 28,0 15 8 25 14 ESE 1023,3 10 0,0
19.04.2018 17:00:00 28,8 8,4 29,2 16 9 29 16 SE 1023,7 10 0,0
19.04.2018 16:00:00 28,5 8,6 29,5 16 9 29 16 SE 1024,2 10 0,0
19.04.2018 15:00:00 28,3 7,7 29,6 16 9 29 16 SE 1024,8 10 0,0
19.04.2018 14:00:00 27,6 9,3 28,8 15 8 25 14 ESE 1025,2 10 0,0
19.04.2018 13:00:00 26,4 10,0 27,8 13 7 22 12 ESE 1025,7 10 0,0
19.04.2018 12:00:00 25,1 9,0 26,2 15 8 29 16 SSE 1026,2 10 0,0
19.04.2018 11:00:00 23,2 8,3 24,2 15 8 25 14 SSE 1026,5 10 0,0
19.04.2018 10:00:00 20,8 9,9 21,5 14 8 22 12 ESE 1026,7 25 0,0

tt = Température de l'air
td = dewpoint
tt 5cm = Température de l'air 5cm
ff = Vitesse du vent
fx = gusts
dd = Direction du vent
ppp = reduced air pressure
vv = visibility
rr = Quantités de précipitations

stations d'obs. à proximité